Location: Ch�stovice
(49.5854°N, 15.0797°E)
Time: 18:40:42
(UTC+00:00)

Daily predictions for brighter satellites

Satellite Brightness Start Highest point End
(mag) Time Altitude Azimuth Time Altitude Azimuth Time Altitude Azimuth
STARLINK-1246 3.9 18:00:33 10° WSW 18:04:42 71° NNW 18:08:51 10° ENE
STARLINK-1271 3.7 18:02:10 10° W 18:05:12 47° N 18:08:15 10° ENE
STARLINK-1270 3.7 18:02:38 10° W 18:05:40 47° N 18:08:42 10° ENE
STARLINK-1154 3.7 18:03:04 10° W 18:06:06 47° N 18:09:09 10° ENE
STARLINK-1197 3.7 18:03:58 10° W 18:07:00 47° N 18:10:03 10° ENE
Meteor 2-15 4.5 18:01:21 10° S 18:07:15 58° E 18:13:12 10° NNE
STARLINK-1189 3.7 18:04:26 10° W 18:07:29 46° N 18:10:31 10° ENE
STARLINK-1198 3.7 18:04:53 10° W 18:07:55 46° N 18:10:57 10° ENE
STARLINK-1097 4.2 18:04:18 10° WNW 18:08:21 53° SSW 18:12:23 10° SE
STARLINK-1188 3.7 18:05:20 10° W 18:08:22 46° N 18:11:24 10° ENE
Cosmos 2237 Rocket 3.7 18:03:27 10° WSW 18:08:45 41° NW 18:14:06 10° NNE
STARLINK-1235 3.8 18:06:02 10° W 18:09:04 44° N 18:12:07 10° ENE
STARLINK-1187 3.8 18:06:17 10° W 18:09:21 45° N 18:12:25 10° ENE
STARLINK-1224 3.9 18:05:36 10° W 18:09:44 68° NNW 18:13:52 10° ENE
STARLINK-1199 3.8 18:07:17 10° W 18:10:19 46° N 18:13:23 10° ENE
STARLINK-1201 3.8 18:07:28 10° W 18:10:38 48° N 18:13:50 10° ENE
STARLINK-1191 3.8 18:07:45 10° W 18:10:48 46° N 18:13:51 10° ENE
H-2A R/B 2.1 18:06:01 10° SSE 18:11:13 67° ENE 18:16:19 10° N
STARLINK-1210 3.8 18:08:11 10° W 18:11:14 46° N 18:14:17 10° ENE
IRS-1A Rocket 4.4 18:05:56 10° SSE 18:11:37 77° ENE 18:17:27 10° NNW
STARLINK-1221 3.8 18:08:38 10° W 18:11:41 46° N 18:14:44 10° ENE
Cosmos 2184 Rocket 4.5 18:05:47 10° N 18:11:44 41° ENE 18:17:35 10° SE
STARLINK-1219 3.8 18:09:05 10° W 18:12:08 46° N 18:15:12 10° ENE
STARLINK-1222 3.8 18:09:33 10° W 18:12:36 46° N 18:15:39 10° ENE
STARLINK-1211 3.8 18:10:01 10° W 18:13:03 45° N 18:16:06 10° ENE
STARLINK-1099 4.3 18:09:18 10° WNW 18:13:19 50° SSW 18:17:19 10° SE
STARLINK-1214 3.8 18:10:28 10° W 18:13:30 45° N 18:16:34 10° ENE
Cosmos 1726 3.3 18:10:33 10° SE 18:13:32 23° E 18:16:31 10° NE
STARLINK-1245 3.8 18:10:56 10° W 18:13:57 45° N 18:16:59 10° ENE
STARLINK-1234 3.8 18:11:15 10° WNW 18:14:11 42° N 18:17:06 10° ENE
STARLINK-1238 3.8 18:11:21 10° W 18:14:24 45° N 18:17:28 10° ENE
STARLINK-1225 4.0 18:10:34 10° W 18:14:41 66° NNW 18:18:50 10° ENE
STARLINK-1228 3.8 18:12:01 10° WNW 18:14:47 40° N 18:17:34 10° ENE
STARLINK-1205 3.8 18:12:18 10° W 18:15:19 45° N 18:18:21 10° ENE
STARLINK-1204 3.8 18:12:45 10° W 18:15:47 45° N 18:18:47 10° ENE
USA 186 1.9 18:12:45 10° SSE 18:16:05 59° ENE 18:19:18 10° N
STARLINK-1104 4.4 18:14:18 10° WNW 18:18:17 47° SW 18:22:15 10° SE
STARLINK-1230 4.0 18:15:34 10° W 18:19:41 64° NNW 18:23:49 10° ENE
ATLAS CENTAUR R/B 4.3 18:23:52 10° N 18:24:09 10° N 18:24:26 10° N
STARLINK-1243 4.1 18:20:33 10° W 18:24:40 62° NNW 18:28:48 10° ENE
STARLINK-1209 3.8 18:21:59 10° WNW 18:24:48 40° N 18:27:37 10° ENE
ARGOS Delta rocket 4.4 18:22:02 10° S 18:27:16 76° W 18:32:45 10° NNW
Cosmos 292 Rocket 3.8 18:22:46 10° NNW 18:27:36 86° ENE 18:32:25 10° SSE
Cosmos 1703 4.3 18:24:58 10° N 18:28:26 28° ENE 18:31:28 12° SE
Cosmos 2251 Rocket 3.7 18:23:59 10° S 18:29:10 52° ESE 18:34:24 10° NNE
STARLINK-1236 4.1 18:25:36 10° W 18:29:43 60° NNW 18:33:50 10° ENE
NOSS 3-4 (A) 4.2 18:24:23 10° NW 18:30:58 50° NE 18:37:30 13° ESE
NOSS 3-4 (C) 4.2 18:24:29 10° NW 18:31:04 50° NE 18:37:35 13° ESE
ERBS 4.4 18:28:59 10° WNW 18:31:45 23° N 18:34:32 10° NE
Cosmos 1953 2.4 18:28:11 10° S 18:32:02 51° E 18:35:56 10° NNE
MONITOR-E 3.7 18:30:04 10° SSE 18:32:42 85° WSW 18:35:21 10° NNW
Cosmos 2315 Rocket 4.2 18:29:07 10° S 18:35:27 83° W 18:41:53 10° N
Cosmos 1626 Rocket 4.4 18:33:59 10° NNW 18:38:17 54° W 18:42:30 10° S
Resurs 01 Rocket 2.4 18:34:55 13° SE 18:38:21 33° ENE 18:42:19 10° N
FREGAT/IRIS 2.9 18:36:01 10° S 18:38:43 60° W 18:41:26 10° NNW
Cosmos 2369 Rocket 2.3 18:33:16 10° NNW 18:39:00 86° WSW 18:44:40 10° SSE
STARLINK-1269 4.2 18:35:34 10° W 18:39:40 57° N 18:43:46 10° ENE
Aureole 3 3.9 18:35:45 10° S 18:40:13 77° E 18:46:03 10° NNE
Cosmos 1626 4.3 18:37:37 10° NNW 18:40:51 29° W 18:44:06 10° SSW
NOSS 3-3 (A) 4.0 18:35:59 10° SSW 18:41:41 54° ESE 18:48:06 10° NE
NOSS 3-3 (C) 4.0 18:36:06 10° SSW 18:41:47 54° ESE 18:48:12 10° NE
Cosmos 2058 Rocket 4.4 18:41:07 15° ESE 18:43:17 21° E 18:46:40 10° NE
STARLINK-1200 4.2 18:40:34 10° W 18:44:39 56° N 18:48:43 10° ENE
Cosmos 1943 Rocket 2.7 18:39:30 10° NW 18:44:58 61° WSW 18:50:27 10° SSE
IRIDIUM 104 4.3 18:39:49 10° N 18:45:04 79° E 18:50:17 10° S
Cosmos 1437 2.6 18:42:11 10° N 18:45:12 58° ENE 18:47:33 15° SSE
ADEOS Rocket 4.4 18:39:02 10° N 18:45:20 44° WNW 18:51:01 10° SW
SL-8 R/B 4.2 18:41:45 10° W 18:46:23 51° SSW 18:49:51 17° SE
CZ-2C R/B 3.9 18:43:05 10° NNE 18:47:44 52° E 18:52:16 10° S
Cosmos 1602 Rocket 4.3 18:43:41 10° NNW 18:48:03 56° W 18:52:21 10° S
STARLINK-1192 4.2 18:45:34 10° W 18:49:39 55° N 18:53:30 11° ENE
Cosmos 1470 4.0 18:48:54 10° SSW 18:52:38 45° WNW 18:56:26 10° N
IRIDIUM 114 4.3 18:48:58 10° N 18:54:14 88° W 18:59:28 10° S
Cosmos 2263 4.2 18:48:41 10° NNW 18:54:20 88° WSW 18:59:32 12° SSE
STARLINK-1244 4.2 18:50:34 10° W 18:54:39 54° N 18:58:17 13° ENE
Cosmos 1908 3.9 18:52:23 15° SSE 18:55:07 34° E 18:58:39 10° NNE
Ariane Rocket 4.1 18:51:32 10° S 18:56:22 45° W 19:01:15 10° NNW
STARLINK-1138 4.2 18:55:35 10° W 18:59:39 53° N 19:03:05 14° ENE
Aureole 2 Rocket 3.8 18:56:28 10° NW 18:59:44 37° WSW 19:02:55 10° S
Abrixas rocket 1.9 18:57:15 10° WSW 19:00:11 63° S 19:01:18 33° ESE
Cosmos 2074 Rocket 4.0 18:54:35 10° N 19:00:55 89° ENE 19:07:13 10° S
STARLINK-67 3.3 18:58:30 10° WNW 19:00:58 41° N 19:01:57 27° ENE
Cosmos 1726 Rocket 3.9 18:57:42 10° SSE 19:01:52 45° E 19:06:07 10° NNE
ATLAS 2AS CENTAUR R/B 3.0 18:55:59 10° NW 19:03:43 70° NE 19:08:47 21° SE
STARLINK-1143 4.2 19:00:31 10° W 19:04:36 53° N 19:07:48 16° ENE
Cosmos 1943 3.2 18:59:11 10° SSW 19:04:44 62° ESE 19:10:22 10° NE
ISS -1.9 19:02:48 10° W 19:05:32 23° SW 19:07:16 16° S
USA 234 3.6 18:59:35 10° ENE 19:05:43 41° SE 19:11:50 10° SSW
Cosmos 1825 Rocket 3.5 19:01:24 10° N 19:05:51 89° W 19:10:02 11° S
SL-08 RB Rocket 4.2 19:04:09 10° S 19:08:38 62° W 19:13:13 10° NNW
Spot 2 Rocket 4.1 19:06:11 23° ESE 19:08:47 39° ENE 19:13:31 10° N
STARLINK-1241 4.3 19:05:35 10° W 19:09:39 52° N 19:12:39 17° ENE
Meteor 2-17 Rocket 4.4 19:06:07 10° N 19:12:17 69° ENE 19:17:20 16° SSE
Cosmos 1140 Rocket 4.4 19:11:31 25° ESE 19:12:30 27° E 19:16:47 10° NE
SPOT 3 Rocket 3.8 19:07:30 10° S 19:12:43 74° WSW 19:17:57 10° NNW
STARLINK-1239 4.3 19:10:35 10° W 19:14:39 52° N 19:17:26 19° ENE
Cosmos 1610 Rocket 4.4 19:10:08 10° N 19:16:23 78° E 19:21:46 14° SSE
Cosmos 1758 Rocket 4.1 19:13:18 10° NNW 19:17:36 58° W 19:21:49 10° S
MetOp-B 4.3 19:15:54 25° SE 19:18:53 54° ENE 19:24:07 10° N
SJ-6B 4.4 19:15:26 10° SSW 19:19:15 37° W 19:23:07 10° NNW
STARLINK-1240 4.3 19:15:35 10° W 19:19:39 52° N 19:22:12 21° ENE
MOS 1 Rocket 3.5 19:17:00 10° NNE 19:22:19 72° ESE 19:27:45 10° S
STARLINK-1216 4.3 19:20:36 10° WNW 19:24:39 52° N 19:27:00 23° ENE
Cosmos 1953 Rocket 3.6 19:20:21 10° N 19:24:50 84° W 19:27:52 20° S
CZ-4C R/B 4.3 19:20:03 10° NW 19:25:15 26° N 19:31:13 10° ENE
SL-16 R/B 4.2 19:21:33 10° WSW 19:26:30 30° NW 19:31:30 10° NNE
Terra 3.4 19:28:43 19° ENE 19:29:29 20° ENE 19:32:53 10° NNE
STARLINK-1237 4.3 19:25:36 10° WNW 19:29:40 52° N 19:31:47 25° ENE
Cosmos 1606 Rocket 3.7 19:25:33 10° SSW 19:29:58 79° W 19:34:28 10° N
Cosmos 1818 3.5 19:24:39 10° SSW 19:30:01 67° SE 19:35:27 10° NE
Cosmos 921 Rocket 3.2 19:27:55 10° N 19:32:00 48° ENE 19:32:50 41° ESE
BREEZE M DEB (TANK) 3.6 19:25:29 10° SW 19:33:45 43° SSE 19:34:31 39° SE
Cosmos 614 Rocket 3.9 19:28:47 10° S 19:33:56 62° ESE 19:39:06 10° NNE
STARLINK-1233 3.6 19:31:03 10° WNW 19:34:07 47° N 19:34:36 42° NE
CZ-2C R/B 2.4 19:29:08 10° NNE 19:34:20 83° ESE 19:39:32 10° SSW
STARLINK-1212 3.5 19:31:30 10° WNW 19:34:34 47° N 19:35:01 43° NE
STARLINK-1202 4.2 19:30:35 10° WNW 19:34:39 52° N 19:36:33 28° ENE
Cosmos 407 Rocket 3.5 19:30:03 10° S 19:34:59 53° ESE 19:39:59 10° NNE
STARLINK-1105 3.5 19:31:57 10° WNW 19:35:01 47° N 19:35:29 43° NE
STARLINK-1206 3.5 19:32:26 10° WNW 19:35:28 47° N 19:35:53 43° NE
STARLINK-1247 3.5 19:32:53 10° WNW 19:35:56 47° N 19:36:19 44° NE
STARLINK-1203 4.2 19:31:57 10° WNW 19:35:59 52° N 19:37:45 29° ENE
Cosmos 2228 3.2 19:31:47 10° SSW 19:36:03 72° WNW 19:40:24 10° N
STARLINK-1227 3.5 19:33:17 10° WNW 19:36:21 48° N 19:36:45 44° NE
Cosmos 1656 Rocket 4.0 19:31:10 10° NNW 19:36:48 65° WSW 19:40:14 24° S
STARLINK-1218 3.5 19:33:48 10° WNW 19:36:51 47° N 19:37:11 45° NE
STARLINK-1226 3.5 19:34:13 10° WNW 19:37:17 48° N 19:37:37 45° NE
STARLINK-1254 3.5 19:34:39 10° WNW 19:37:43 48° N 19:38:04 45° NE
SPOT 1/Viking Rocket 4.0 19:36:24 35° ESE 19:38:00 45° ENE 19:42:58 10° N
STARLINK-1215 3.5 19:35:09 10° WNW 19:38:11 48° N 19:38:29 46° NNE
STARLINK-1231 3.5 19:35:36 10° WNW 19:38:39 48° N 19:38:56 46° NNE
STARLINK-1232 3.5 19:36:30 10° WNW 19:39:33 48° N 19:39:47 47° NNE
STARLINK-1217 3.5 19:36:57 10° WNW 19:40:00 48° N 19:40:14 47° NNE
IGS 5A 3.8 19:39:45 43° E 19:40:12 45° ENE 19:44:12 10° N
STARLINK-1208 3.5 19:37:21 10° WNW 19:40:27 49° N 19:40:40 47° NNE
STARLINK-1229 3.4 19:37:50 10° WNW 19:40:53 49° N 19:41:04 48° NNE
STARLINK-1271 3.4 19:38:17 10° WNW 19:41:21 49° N 19:41:32 48° NNE
STARLINK-1270 3.4 19:38:45 10° WNW 19:41:49 49° NNE 19:41:57 48° NNE
STARLINK-1154 3.4 19:39:12 10° WNW 19:42:15 49° NNE 19:42:23 49° NNE
SAR-Lupe-2 3.5 19:38:41 10° NNE 19:42:09 63° E 19:42:09 63° E
Cosmos 1295 Rocket 4.5 19:35:59 10° N 19:42:18 88° E 19:46:25 23° S
STARLINK-1197 3.4 19:40:06 10° WNW 19:43:10 49° NNE 19:43:15 49° NNE
STARLINK-1189 3.4 19:40:34 10° WNW 19:43:37 49° N 19:43:42 49° NNE
STARLINK-1198 3.4 19:41:00 10° WNW 19:44:03 50° N 19:44:07 49° NNE
STARLINK-1188 3.5 19:41:27 10° WNW 19:44:31 50° NNE 19:44:33 50° NNE
STARLINK-1246 4.2 19:40:33 10° WNW 19:44:37 52° N 19:46:06 34° ENE
STARLINK-1235 3.3 19:42:06 10° WNW 19:45:11 55° N 19:45:11 55° N
Cosmos 2341 Rocket 4.0 19:39:03 10° N 19:45:27 72° E 19:48:37 32° SSE
STARLINK-1187 3.4 19:42:25 10° WNW 19:45:32 53° NNE 19:45:33 53° NNE
BREEZE-M DEB (TANK) 3.7 19:40:58 10° WNW 19:45:49 43° SSW 19:45:58 43° SSW
COSMOS 2455 3.0 19:40:02 10° NNW 19:46:03 64° NE 19:48:18 38° ESE
SL-4 R/B 3.8 19:43:01 10° SW 19:43:45 15° SSW 19:43:45 15° SSW
STARLINK-1199 3.5 19:43:23 10° WNW 19:46:29 51° NNE 19:46:29 51° NNE
STARLINK-1191 3.5 19:43:51 10° WNW 19:46:54 51° N 19:46:54 51° N
STARLINK-1201 3.5 19:44:01 10° WNW 19:47:14 51° N 19:47:21 51° NNE
STARLINK-1210 3.5 19:44:17 10° WNW 19:47:20 51° N 19:47:20 51° N
STARLINK-1221 3.5 19:44:44 10° WNW 19:47:46 51° N 19:47:46 51° N
STARLINK-1219 3.5 19:45:12 10° WNW 19:48:12 51° N 19:48:12 51° N
Cosmos 1603 4.4 19:42:56 10° SW 19:48:28 56° NW 19:54:00 10° NNE
Cosmos 1726 4.1 19:45:16 10° SW 19:48:36 30° WNW 19:51:57 10° N
STARLINK-1222 3.5 19:45:39 10° WNW 19:48:38 51° N 19:48:38 51° N
Cosmos 1340 Rocket 2.7 19:47:46 48° S 19:48:51 81° E 19:52:55 10° NNE
ERS-1 Rocket 3.4 19:47:59 39° E 19:48:54 43° ENE 19:53:40 10° N
Cosmos 1980 Rocket 4.4 19:46:14 10° N 19:49:04 14° NNE 19:51:54 10° ENE
STARLINK-1211 3.5 19:46:06 10° WNW 19:49:04 51° N 19:49:04 51° N
STARLINK-1214 3.5 19:46:34 10° WNW 19:49:31 51° N 19:49:31 51° N
STARLINK-1224 4.2 19:45:36 10° WNW 19:49:41 53° N 19:50:56 37° ENE
STARLINK-1234 3.5 19:47:00 10° WNW 19:49:39 52° NNW 19:49:39 52° NNW
STARLINK-1228 3.6 19:47:09 10° WNW 19:49:30 47° NNW 19:49:30 47° NNW
STARLINK-1245 3.5 19:47:01 10° WNW 19:49:55 51° N 19:49:55 51° N
STARLINK-1238 3.5 19:47:27 10° WNW 19:50:23 51° N 19:50:23 51° N
H-2A R/B 4.5 19:47:21 10° SW 19:51:06 20° W 19:54:49 10° NW
STARLINK-1205 3.6 19:48:23 10° WNW 19:51:14 50° N 19:51:14 50° N
STARLINK-1204 3.6 19:48:50 10° WNW 19:51:39 50° N 19:51:39 50° N
STARLINK-1225 4.2 19:50:34 10° WNW 19:54:38 53° N 19:55:41 41° NE
Cosmos 1954 Rocket 4.5 19:57:46 40° E 19:57:46 40° E 20:02:01 10° NE
Cosmos 1892 4.2 19:54:21 10° N 19:56:50 26° NE 19:56:50 26° NE
STARLINK-1230 4.1 19:55:34 10° WNW 19:59:39 54° N 20:00:28 45° NE
STARLINK-1209 4.1 19:57:22 10° WNW 19:59:26 39° NW 19:59:26 39° NW
STARLINK-1243 4.1 20:00:32 10° WNW 20:04:38 55° N 20:05:14 49° NE
ATLAS CENTAUR R/B 3.7 20:02:45 10° NNW 20:04:49 14° NNE 20:06:08 12° NE
Cosmos 2218 Rocket 4.0 20:00:03 10° N 20:06:12 65° ENE 20:07:52 47° SE
Cosmos 1461 3.0 20:02:58 10° NW 20:07:30 81° SW 20:07:55 71° S
ERBS 3.8 20:05:45 10° NW 20:08:37 30° N 20:08:37 30° N
STARLINK-1236 4.0 20:05:35 10° WNW 20:09:40 56° N 20:10:04 53° NE
Cosmos 1076 Rocket 3.9 20:07:28 10° N 20:11:09 51° NE 20:11:09 51° NE
Cosmos 1023 Rocket 4.3 20:11:23 39° SSW 20:13:23 84° ESE 20:18:34 10° NNE
Resurs 01 Rocket 3.2 20:12:28 19° SW 20:14:51 30° W 20:18:47 10° NNW
ATLAS 5 CENTAUR R/B 3.9 20:20:51 14° NE 20:20:51 14° NE 20:21:30 10° NE
Cosmos 1825 4.4 20:15:56 10° NNE 20:17:15 16° NE 20:17:15 16° NE
In-Cosmos 22 Rocket 4.2 20:13:16 10° N 20:19:08 76° ENE 20:20:12 60° SE
STARLINK-1269 4.0 20:15:31 10° WNW 20:19:36 58° N 20:19:36 58° N
Cosmos 2181 Rocket 3.9 20:18:41 45° S 20:20:45 79° E 20:26:58 10° NNE
Cosmos 2058 Rocket 4.0 20:18:19 22° SW 20:20:57 47° WNW 20:25:21 10° N
NOSS 3-4 (A) 4.2 20:15:19 10° NW 20:22:07 56° WSW 20:24:57 37° S
NOSS 3-4 (C) 4.2 20:15:25 10° NW 20:22:14 56° WSW 20:25:02 37° S
Cosmos 1300 3.3 20:23:46 52° NNW 20:23:46 52° NNW 20:26:49 10° N
STARLINK-1200 4.0 20:20:29 10° WNW 20:24:22 59° N 20:24:22 59° N
Landsat 7 4.0 20:24:18 59° SSW 20:24:56 67° WSW 20:29:42 10° NNW
Meteor 2-1 Rocket 4.4 20:25:44 54° E 20:25:44 54° E 20:31:27 10° NNE
Cosmos 1763 Rocket 3.9 20:23:44 10° NNW 20:28:47 48° ENE 20:28:47 48° ENE
STARLINK-1192 4.1 20:25:29 10° WNW 20:29:09 57° NNW 20:29:09 57° NNW
SL-8 Rocket 4.1 20:24:39 10° NNW 20:30:58 76° W 20:32:55 47° S
STARLINK-1244 4.3 20:30:28 10° WNW 20:33:56 54° NNW 20:33:56 54° NNW
Cosmos 864 Rocket 4.4 20:29:11 10° N 20:35:27 88° W 20:36:39 61° S
CARTOSAT-1 3.8 20:36:52 65° NNW 20:36:52 65° NNW 20:40:37 10° NNW
SPOT 5 2.9 20:39:20 65° NNW 20:39:20 65° NNW 20:43:04 10° NNW
Cosmos 2058 3.6 20:34:43 10° NNW 20:37:54 52° NNW 20:37:54 52° NNW
STARLINK-1138 4.4 20:35:28 10° WNW 20:38:44 50° NW 20:38:44 50° NW
SL-24 R/B - RUBIN 2 4.3 20:33:56 10° SW 20:39:37 86° NW 20:46:04 10° NE
Cosmos 2366 rocket 3.9 20:35:10 10° NNW 20:41:20 78° W 20:42:31 59° SSW
USA 234 3.3 20:42:31 10° ENE 20:49:05 79° NNW 20:55:38 10° WSW
Cosmos 2369 4.5 20:44:04 10° NNW 20:49:21 38° NE 20:49:33 38° NE
Cosmos 540 Rocket 4.4 20:45:12 10° NNW 20:49:35 38° NE 20:49:35 38° NE
Nadezhda 3 Rocket 4.4 20:52:27 47° ENE 20:52:27 47° ENE 20:57:48 10° NNE
Cosmos 1140 Rocket 4.2 20:51:23 26° WSW 20:54:01 50° WNW 20:59:04 10° NNE
ATLAS 2AS CENTAUR R/B 3.8 20:47:36 10° NW 20:54:12 35° WSW 20:56:14 29° SW
Iridium 4 Rocket 4.0 20:53:13 10° NNW 20:56:43 44° WNW 20:56:43 44° WNW
Cosmos 1570 Rocket 4.4 20:52:41 10° NNW 20:57:27 55° NE 20:57:27 55° NE
Meteor 2-12 Rocket 4.4 20:53:13 10° NNW 20:59:19 73° W 20:59:54 68° SW
RESURS DK-1 4.0 20:57:10 10° NNW 20:59:42 30° N 20:59:42 30° N
Cosmos 841 Rocket 4.1 20:57:10 10° NNW 21:01:39 49° NNE 21:01:39 49° NNE
BREEZE M DEB (TANK) 3.6 21:02:08 69° S 21:02:32 71° SSE 21:17:56 10° ENE
Terra 2.4 21:07:36 55° NW 21:07:36 55° NW 21:11:32 10° NNW
Cosmos 1697 Rocket 3.2 21:01:45 10° NNW 21:06:58 49° NE 21:06:58 49° NE
Cosmos 468 Rocket 4.4 21:05:09 10° NNW 21:09:34 60° WNW 21:09:34 60° WNW
CZ-4C R/B 3.5 21:08:54 10° NW 21:15:26 47° NE 21:17:32 38° ENE
Mayak 0.9 21:11:58 10° NNE 21:13:23 21° NNE 21:13:23 21° NNE
SL-16 R/B 4.2 21:13:17 10° N 21:17:04 18° NE 21:18:42 16° NE
Meteor 2-10 Rocket 4.2 21:20:36 48° NNE 21:20:36 48° NNE 21:24:28 10° NNE
Cosmos 2239 Rocket 4.5 21:16:08 10° N 21:21:59 77° NNE 21:21:59 77° NNE
Cosmos 1821 Rocket 4.0 21:17:42 10° N 21:23:55 85° NNW 21:23:55 85° NNW
Cosmos 489 Rocket 4.5 21:21:06 10° NNW 21:26:55 77° WNW 21:26:55 77° WNW
ERS-1 Rocket 4.4 21:27:58 29° W 21:27:58 29° W 21:32:14 10° NW
Cosmos 2322 Rocket 4.2 21:24:41 10° N 21:28:28 18° NE 21:30:00 16° NE
COSMOS 2455 4.2 21:26:31 10° NW 21:31:27 29° WSW 21:31:27 29° WSW
ASTEX 1 4.3 21:33:47 47° NNW 21:33:47 47° NNW 21:37:19 10° N
Cosmos 1980 Rocket 3.0 21:29:11 10° NNW 21:33:52 43° NNE 21:33:52 43° NNE
Cosmos 1934 Rocket 4.1 21:30:03 10° N 21:35:38 66° NNE 21:35:38 66° NNE
Cosmos 1605 Rocket 4.5 21:36:51 10° N 21:41:55 51° NE 21:41:55 51° NE
ATLAS CENTAUR R/B 3.8 21:40:58 10° NNW 21:42:19 19° NNW 21:42:19 19° NNW
Cosmos 2278 4.3 21:47:52 10° NNW 21:52:13 53° N 21:52:13 53° N
Cosmos 2082 Rocket 3.9 22:02:45 24° NE 22:02:45 24° NE 22:05:01 10° NE
ATLAS 5 CENTAUR R/B 3.4 22:02:16 30° NNW 22:02:16 30° NNW 22:06:16 10° NNE
COSMOS 2406 4.0 22:09:22 47° N 22:09:22 47° N 22:13:31 10° NNE
Cosmos 1833 Rocket 3.8 22:21:35 38° NNE 22:21:35 38° NNE 22:25:01 10° NNE
USA 234 4.0 22:25:31 10° ENE 22:31:45 49° N 22:37:59 10° W
Cosmos 1697 Rocket 4.5 22:46:05 10° NW 22:48:42 23° WNW 22:48:42 23° WNW
Mayak 1.6 22:48:40 10° NNW 22:49:57 14° NW 22:49:57 14° NW
Cosmos 1727 Rocket 4.5 22:59:22 57° N 22:59:22 57° N 23:04:20 10° N
SL-16 R/B 3.2 22:56:39 10° NNW 23:00:33 43° N 23:00:33 43° N
Cosmos 1459 Rocket 4.5 22:56:15 10° N 23:01:18 58° N 23:01:18 58° N
CZ-4C R/B 3.3 22:57:22 10° NW 23:02:42 52° WNW 23:02:42 52° WNW
Cosmos 2360 Rocket 3.4 23:06:08 10° NNW 23:10:44 37° NE 23:10:44 37° NE
Cosmos 2333 Rocket 4.3 23:08:17 10° N 23:12:33 21° NE 23:15:07 16° ENE
Cosmos 2322 Rocket 3.2 23:08:00 10° NNW 23:11:48 42° N 23:11:48 42° N
Cosmos 1980 Rocket 4.1 23:13:26 10° NW 23:15:38 22° WNW 23:15:38 22° WNW
Resurs 1-4 Rocket 4.1 23:33:10 10° NE 23:36:00 20° ENE 23:36:00 20° ENE
Cosmos 2082 Rocket 3.4 23:44:35 36° NNW 23:44:35 36° NNW 23:49:07 10° NNE
ATLAS 5 CENTAUR R/B 4.5 23:44:43 10° NW 23:48:02 18° N 23:51:39 10° NE
CZ-2D R/B 3.8 23:45:00 10° NE 23:48:41 25° ENE 23:48:41 25° ENE
